Simultaneous Nadir Overpasses (SNOs) Predictions

Prediction of SNOs between GOES-14 and NOAA-20 Satellite Orbit:

Table of predicted SNOs for the next 14.0 days since TLE Epoch: 6/21/2019
Index Date Time (GOES-14) GOES-14 Lat,Lon NOAA-20 Lat,Lon Distance(km) Time Diff (sec)
1 06/23/2019 08:30:08 -0.08,-104.52 0.41,-106.59 236.97 80
2 06/24/2019 08:14:04 -0.06,-104.53 -0.64,-102.07 280.78 80
3 06/25/2019 20:33:20 0.09,-104.70 -0.50,-107.38 305.84 80
4 06/26/2019 20:17:15 0.08,-104.70 0.49,-102.85 211.68 80
5 06/28/2019 08:36:22 -0.11,-104.55 0.67,-108.12 406.05 80
6 06/29/2019 08:20:16 -0.10,-104.56 -0.32,-103.58 111.43 80
7 06/30/2019 20:39:33 0.13,-104.72 -0.82,-108.89 475.34 80
8 07/01/2019 20:23:27 0.12,-104.73 0.18,-104.36 41.87 80
9 07/04/2019 08:23:49 -0.14,-104.57 -0.00,-105.09 59.68 80
10 07/05/2019 08:07:44 -0.12,-104.57 -1.00,-100.55 457.49 80




NCC Satellite Simultaneous Nadir Overpasses (SNOs) Prediction Service
